Time,TemperatureF,DewpointF,PressureIn,WindDirection,WindDirectionDegrees,WindSpeedMPH,WindSpeedGustMPH,Humidity,HourlyPrecipIn,Conditions,Clouds,dailyrainin,SoftwareType,DateUTC
2013-04-07 00:02:00,53.0,48.0,30.16,SW,236,3.0,7.0,84,0.00,,,0.00,,2013-04-07 07:02:00,
2013-04-07 00:11:00,53.0,48.0,30.16,SW,236,3.0,7.0,84,0.00,,,0.00,,2013-04-07 07:11:00,
2013-04-07 00:21:00,53.0,48.0,30.15,SW,230,2.0,6.0,84,0.00,,,0.00,,2013-04-07 07:21:00,
2013-04-07 00:32:00,53.0,48.0,30.15,West,279,3.0,7.0,84,0.00,,,0.00,,2013-04-07 07:32:00,
2013-04-07 00:42:00,53.0,48.0,30.15,West,279,3.0,7.0,84,0.00,,,0.00,,2013-04-07 07:42:00,
2013-04-07 00:52:00,53.0,48.0,30.15,SW,223,1.0,5.0,84,0.00,,,0.00,,2013-04-07 07:52:00,
2013-04-07 01:02:00,53.0,48.0,30.14,SW,227,1.0,3.0,84,0.00,,,0.00,,2013-04-07 08:02:00,
2013-04-07 01:11:00,53.0,48.0,30.14,SW,227,1.0,3.0,84,0.00,,,0.00,,2013-04-07 08:11:00,
2013-04-07 01:22:00,52.0,47.0,30.15,SW,229,1.0,3.0,84,0.00,,,0.00,,2013-04-07 08:22:00,
2013-04-07 01:32:00,52.0,48.0,30.15,SW,215,1.0,3.0,85,0.00,,,0.00,,2013-04-07 08:32:00,
2013-04-07 01:42:00,52.0,48.0,30.15,SW,215,1.0,3.0,85,0.00,,,0.00,,2013-04-07 08:42:00,
2013-04-07 01:52:00,52.0,48.0,30.14,SSW,203,1.0,3.0,85,0.00,,,0.00,,2013-04-07 08:52:00,
2013-04-07 02:01:00,52.0,48.0,30.14,SSW,208,2.0,5.0,85,0.00,,,0.00,,2013-04-07 09:01:00,
2013-04-07 02:11:00,52.0,48.0,30.14,SSW,208,2.0,5.0,85,0.00,,,0.00,,2013-04-07 09:11:00,
2013-04-07 02:22:00,52.0,48.0,30.14,SW,219,1.0,3.0,86,0.00,,,0.00,,2013-04-07 09:22:00,
2013-04-07 02:33:00,51.0,47.0,30.14,South,190,2.0,3.0,86,0.00,,,0.00,,2013-04-07 09:33:00,
2013-04-07 02:42:00,51.0,47.0,30.14,South,190,2.0,3.0,86,0.00,,,0.00,,2013-04-07 09:42:00,
2013-04-07 02:53:00,51.0,47.0,30.14,SW,215,3.0,4.0,86,0.00,,,0.00,,2013-04-07 09:53:00,
2013-04-07 03:02:00,51.0,47.0,30.14,SSW,192,2.0,4.0,86,0.00,,,0.00,,2013-04-07 10:02:00,
2013-04-07 03:12:00,51.0,47.0,30.14,SSW,192,2.0,4.0,86,0.00,,,0.00,,2013-04-07 10:12:00,
2013-04-07 03:22:00,51.0,47.0,30.13,SSW,202,1.0,3.0,86,0.00,,,0.00,,2013-04-07 10:22:00,
2013-04-07 03:32:00,51.0,47.0,30.11,South,185,2.0,5.0,87,0.00,,,0.00,,2013-04-07 10:32:00,
2013-04-07 03:42:00,51.0,47.0,30.11,South,185,2.0,5.0,87,0.00,,,0.00,,2013-04-07 10:42:00,
2013-04-07 03:53:00,51.0,47.0,30.11,SSW,213,3.0,6.0,87,0.00,,,0.00,,2013-04-07 10:53:00,
2013-04-07 04:02:00,51.0,47.0,30.10,SSW,194,2.0,7.0,86,0.00,,,0.00,,2013-04-07 11:02:00,
2013-04-07 04:11:00,51.0,47.0,30.10,SSW,194,2.0,7.0,86,0.00,,,0.00,,2013-04-07 11:11:00,
2013-04-07 04:22:00,52.0,48.0,30.11,SW,217,2.0,7.0,86,0.00,,,0.00,,2013-04-07 11:22:00,
2013-04-07 04:32:00,52.0,48.0,30.10,SSW,211,3.0,8.0,85,0.00,,,0.00,,2013-04-07 11:32:00,
2013-04-07 04:42:00,52.0,48.0,30.10,SSW,211,3.0,8.0,85,0.00,,,0.00,,2013-04-07 11:42:00,
2013-04-07 04:53:00,52.0,48.0,30.10,SSW,213,4.0,8.0,85,0.00,,,0.00,,2013-04-07 11:53:00,
2013-04-07 05:02:00,52.0,48.0,30.10,SSW,213,4.0,8.0,85,0.00,,,0.00,,2013-04-07 12:02:00,
2013-04-07 05:12:00,52.0,48.0,30.10,SSW,213,4.0,8.0,85,0.00,,,0.00,,2013-04-07 12:12:00,
2013-04-07 05:22:00,52.0,47.0,30.09,WSW,240,2.0,8.0,84,0.00,,,0.00,,2013-04-07 12:22:00,
2013-04-07 05:32:00,52.0,47.0,30.09,SSW,202,4.0,8.0,84,0.00,,,0.00,,2013-04-07 12:32:00,
2013-04-07 05:42:00,52.0,47.0,30.09,SSW,202,4.0,8.0,84,0.00,,,0.00,,2013-04-07 12:42:00,
2013-04-07 05:53:00,52.0,47.0,30.09,WSW,256,2.0,8.0,84,0.00,,,0.00,,2013-04-07 12:53:00,
2013-04-07 06:02:00,52.0,47.0,30.10,SSW,211,3.0,6.0,84,0.00,,,0.00,,2013-04-07 13:02:00,
2013-04-07 06:12:00,52.0,47.0,30.10,SSW,211,3.0,6.0,84,0.00,,,0.00,,2013-04-07 13:12:00,
2013-04-07 06:22:00,53.0,49.0,30.09,SSW,194,3.0,6.0,85,0.00,,,0.00,,2013-04-07 13:22:00,
2013-04-07 06:32:00,53.0,49.0,30.09,SSW,209,2.0,5.0,85,0.00,,,0.00,,2013-04-07 13:32:00,
2013-04-07 06:41:00,53.0,49.0,30.09,SSW,209,2.0,5.0,85,0.00,,,0.00,,2013-04-07 13:41:00,
2013-04-07 06:52:00,53.0,48.0,30.09,SW,219,2.0,6.0,84,0.00,,,0.00,,2013-04-07 13:52:00,
2013-04-07 07:02:00,53.0,48.0,30.10,SSW,205,2.0,7.0,84,0.00,,,0.00,,2013-04-07 14:02:00,
2013-04-07 07:11:00,53.0,48.0,30.10,SSW,205,2.0,7.0,84,0.00,,,0.00,,2013-04-07 14:11:00,
2013-04-07 07:22:00,53.0,48.0,30.10,SSW,211,4.0,8.0,84,0.00,,,0.00,,2013-04-07 14:22:00,
2013-04-07 07:32:00,53.0,48.0,30.11,SSW,200,2.0,5.0,84,0.00,,,0.00,,2013-04-07 14:32:00,
2013-04-07 07:42:00,53.0,48.0,30.11,SSW,200,2.0,5.0,84,0.00,,,0.00,,2013-04-07 14:42:00,
2013-04-07 07:53:00,54.0,49.0,30.11,South,190,2.0,6.0,84,0.00,,,0.00,,2013-04-07 14:53:00,
2013-04-07 08:02:00,54.0,49.0,30.11,SSW,195,3.0,6.0,83,0.00,,,0.00,,2013-04-07 15:02:00,
2013-04-07 08:12:00,54.0,49.0,30.11,SSW,198,2.0,6.0,82,0.00,,,0.00,,2013-04-07 15:12:00,
2013-04-07 08:21:00,54.0,49.0,30.11,SSW,198,2.0,6.0,82,0.00,,,0.00,,2013-04-07 15:21:00,
2013-04-07 08:33:00,55.0,49.0,30.11,SW,214,4.0,7.0,81,0.00,,,0.00,,2013-04-07 15:33:00,
2013-04-07 08:43:00,55.0,49.0,30.11,SW,214,4.0,7.0,81,0.00,,,0.00,,2013-04-07 15:43:00,
2013-04-07 08:54:00,55.0,49.0,30.10,SSW,210,3.0,6.0,80,0.00,,,0.00,,2013-04-07 15:54:00,
2013-04-07 09:02:00,55.0,49.0,30.10,SSW,207,3.0,7.0,79,0.00,,,0.00,,2013-04-07 16:02:00,
2013-04-07 09:12:00,55.0,49.0,30.10,SSW,207,3.0,7.0,79,0.00,,,0.00,,2013-04-07 16:12:00,
2013-04-07 09:23:00,56.0,50.0,30.10,South,169,4.0,5.0,79,0.00,,,0.00,,2013-04-07 16:23:00,
2013-04-07 09:32:00,56.0,50.0,30.10,SSW,196,2.0,6.0,79,0.00,,,0.00,,2013-04-07 16:32:00,
2013-04-07 09:42:00,56.0,50.0,30.10,SSW,196,2.0,6.0,79,0.00,,,0.00,,2013-04-07 16:42:00,
2013-04-07 09:53:00,57.0,50.0,30.09,SSW,196,3.0,6.0,77,0.00,,,0.00,,2013-04-07 16:53:00,
2013-04-07 10:02:00,59.0,50.0,30.08,SW,233,4.0,7.0,72,0.00,,,0.00,,2013-04-07 17:02:00,
2013-04-07 10:12:00,59.0,50.0,30.08,SW,233,4.0,7.0,72,0.00,,,0.00,,2013-04-07 17:12:00,
2013-04-07 10:22:00,60.0,51.0,30.08,SW,232,2.0,7.0,72,0.00,,,0.00,,2013-04-07 17:22:00,
2013-04-07 10:32:00,60.0,51.0,30.09,SW,226,2.0,4.0,72,0.00,,,0.00,,2013-04-07 17:32:00,
2013-04-07 10:42:00,60.0,51.0,30.09,SW,226,2.0,4.0,72,0.00,,,0.00,,2013-04-07 17:42:00,
2013-04-07 10:53:00,61.0,51.0,30.09,WNW,295,4.0,8.0,70,0.00,,,0.00,,2013-04-07 17:53:00,
2013-04-07 11:02:00,61.0,51.0,30.10,WNW,290,4.0,10.0,69,0.00,,,0.00,,2013-04-07 18:02:00,
2013-04-07 11:12:00,61.0,51.0,30.10,WNW,290,4.0,10.0,69,0.00,,,0.00,,2013-04-07 18:12:00,
2013-04-07 11:22:00,64.0,52.0,30.09,WSW,237,3.0,9.0,64,0.00,,,0.00,,2013-04-07 18:22:00,
2013-04-07 11:32:00,62.0,51.0,30.08,WNW,288,6.0,10.0,68,0.00,,,0.00,,2013-04-07 18:32:00,
2013-04-07 11:42:00,62.0,51.0,30.08,WNW,288,6.0,10.0,68,0.00,,,0.00,,2013-04-07 18:42:00,
2013-04-07 11:52:00,63.0,52.0,30.08,WNW,286,3.0,10.0,68,0.00,,,0.00,,2013-04-07 18:52:00,
2013-04-07 12:02:00,64.0,52.0,30.07,WNW,302,8.0,12.0,65,0.00,,,0.00,,2013-04-07 19:02:00,
2013-04-07 12:11:00,64.0,52.0,30.07,WNW,302,8.0,12.0,65,0.00,,,0.00,,2013-04-07 19:11:00,
2013-04-07 12:21:00,65.0,53.0,30.07,WNW,292,6.0,13.0,64,0.00,,,0.00,,2013-04-07 19:21:00,
2013-04-07 12:31:00,65.0,53.0,30.06,WNW,295,5.0,16.0,64,0.00,,,0.00,,2013-04-07 19:31:00,
2013-04-07 12:42:00,65.0,53.0,30.06,WNW,295,5.0,16.0,64,0.00,,,0.00,,2013-04-07 19:42:00,
2013-04-07 12:53:00,64.0,52.0,30.06,WNW,288,6.0,12.0,66,0.00,,,0.00,,2013-04-07 19:53:00,
2013-04-07 13:02:00,64.0,53.0,30.05,WSW,251,6.0,13.0,67,0.00,,,0.00,,2013-04-07 20:02:00,
2013-04-07 13:12:00,64.0,53.0,30.05,WSW,251,6.0,13.0,67,0.00,,,0.00,,2013-04-07 20:12:00,
2013-04-07 13:22:00,65.0,52.0,30.05,WSW,248,4.0,11.0,63,0.00,,,0.00,,2013-04-07 20:22:00,
2013-04-07 13:32:00,64.0,52.0,30.04,NW,308,9.0,15.0,65,0.00,,,0.00,,2013-04-07 20:32:00,
2013-04-07 13:42:00,64.0,52.0,30.04,NW,308,9.0,15.0,65,0.00,,,0.00,,2013-04-07 20:42:00,
2013-04-07 13:53:00,65.0,53.0,30.03,West,279,8.0,12.0,66,0.00,,,0.00,,2013-04-07 20:53:00,
2013-04-07 14:02:00,65.0,53.0,30.02,WSW,254,9.0,15.0,64,0.00,,,0.00,,2013-04-07 21:02:00,
2013-04-07 14:11:00,65.0,53.0,30.02,WSW,254,9.0,15.0,64,0.00,,,0.00,,2013-04-07 21:11:00,
2013-04-07 14:22:00,65.0,53.0,30.02,West,265,6.0,13.0,65,0.00,,,0.00,,2013-04-07 21:22:00,
2013-04-07 14:33:00,66.0,53.0,30.01,WNW,283,10.0,17.0,64,0.00,,,0.00,,2013-04-07 21:33:00,
2013-04-07 14:43:00,66.0,53.0,30.01,WNW,283,10.0,17.0,64,0.00,,,0.00,,2013-04-07 21:43:00,
2013-04-07 14:53:00,65.0,53.0,30.00,NW,309,8.0,14.0,64,0.00,,,0.00,,2013-04-07 21:53:00,
2013-04-07 15:02:00,66.0,52.0,29.99,WNW,296,8.0,14.0,61,0.00,,,0.00,,2013-04-07 22:02:00,
2013-04-07 15:13:00,66.0,52.0,29.99,WNW,296,8.0,14.0,61,0.00,,,0.00,,2013-04-07 22:13:00,
2013-04-07 15:22:00,67.0,52.0,29.98,West,261,9.0,16.0,59,0.00,,,0.00,,2013-04-07 22:22:00,
2013-04-07 15:32:00,67.0,52.0,29.99,WSW,257,9.0,16.0,58,0.00,,,0.00,,2013-04-07 22:32:00,
2013-04-07 15:42:00,67.0,52.0,29.99,WSW,257,9.0,16.0,58,0.00,,,0.00,,2013-04-07 22:42:00,
2013-04-07 15:53:00,67.0,51.0,29.98,WNW,292,10.0,17.0,56,0.00,,,0.00,,2013-04-07 22:53:00,
2013-04-07 16:02:00,66.0,50.0,29.98,WNW,295,10.0,23.0,56,0.00,,,0.00,,2013-04-07 23:02:00,
2013-04-07 16:12:00,66.0,50.0,29.98,WNW,295,10.0,23.0,56,0.00,,,0.00,,2013-04-07 23:12:00,
2013-04-07 16:32:00,64.0,49.0,29.97,SW,232,7.0,15.0,58,0.00,,,0.00,,2013-04-07 23:32:00,
2013-04-07 16:42:00,64.0,49.0,29.97,SW,232,7.0,15.0,58,0.00,,,0.00,,2013-04-07 23:42:00,
2013-04-07 16:52:00,65.0,49.0,29.98,West,267,9.0,18.0,57,0.00,,,0.00,,2013-04-07 23:52:00,
2013-04-07 17:02:00,64.0,49.0,29.97,West,259,10.0,17.0,58,0.00,,,0.00,,2013-04-08 00:02:00,
2013-04-07 17:12:00,64.0,49.0,29.97,West,259,10.0,17.0,58,0.00,,,0.00,,2013-04-08 00:12:00,
2013-04-07 17:22:00,63.0,48.0,29.96,WNW,286,7.0,15.0,58,0.00,,,0.00,,2013-04-08 00:22:00,
2013-04-07 17:32:00,63.0,48.0,29.96,West,264,6.0,19.0,59,0.00,,,0.00,,2013-04-08 00:32:00,
2013-04-07 17:42:00,63.0,48.0,29.96,West,264,6.0,19.0,59,0.00,,,0.00,,2013-04-08 00:42:00,
2013-04-07 17:52:00,63.0,48.0,29.96,WNW,286,9.0,16.0,58,0.00,,,0.00,,2013-04-08 00:52:00,
2013-04-07 18:01:00,62.0,48.0,29.96,WSW,257,7.0,14.0,61,0.00,,,0.00,,2013-04-08 01:01:00,
2013-04-07 18:11:00,62.0,48.0,29.96,WSW,257,7.0,14.0,61,0.00,,,0.00,,2013-04-08 01:11:00,
2013-04-07 18:22:00,61.0,48.0,29.96,WNW,298,7.0,15.0,62,0.00,,,0.00,,2013-04-08 01:22:00,
2013-04-07 18:32:00,60.0,47.0,29.95,West,267,6.0,13.0,63,0.00,,,0.00,,2013-04-08 01:32:00,
2013-04-07 18:42:00,60.0,47.0,29.95,West,267,6.0,13.0,63,0.00,,,0.00,,2013-04-08 01:42:00,
2013-04-07 18:54:00,59.0,47.0,29.94,SSW,209,6.0,11.0,64,0.00,,,0.00,,2013-04-08 01:54:00,
2013-04-07 19:02:00,58.0,47.0,29.95,WSW,246,5.0,14.0,67,0.00,,,0.00,,2013-04-08 02:02:00,
2013-04-07 19:12:00,58.0,47.0,29.95,WSW,246,5.0,14.0,67,0.00,,,0.00,,2013-04-08 02:12:00,
2013-04-07 19:21:00,57.0,47.0,29.93,West,274,5.0,11.0,69,0.00,,,0.00,,2013-04-08 02:21:00,
2013-04-07 19:43:00,57.0,47.0,29.94,WSW,241,5.0,13.0,70,0.00,,,0.00,,2013-04-08 02:43:00,
2013-04-07 19:53:00,56.0,46.0,29.94,WSW,252,8.0,17.0,70,0.00,,,0.00,,2013-04-08 02:53:00,
2013-04-07 20:12:00,55.0,45.0,29.93,WSW,256,7.0,15.0,68,0.00,,,0.00,,2013-04-08 03:12:00,
2013-04-07 20:22:00,54.0,44.0,29.93,West,264,7.0,17.0,69,0.00,,,0.00,,2013-04-08 03:22:00,
2013-04-07 20:32:00,54.0,45.0,29.92,SW,232,9.0,16.0,72,0.00,,,0.00,,2013-04-08 03:32:00,
2013-04-07 20:43:00,54.0,45.0,29.92,SW,232,9.0,16.0,72,0.00,,,0.00,,2013-04-08 03:43:00,
2013-04-07 20:54:00,54.0,46.0,29.92,South,190,8.0,13.0,73,0.00,,,0.00,,2013-04-08 03:54:00,
2013-04-07 21:02:00,54.0,46.0,29.92,West,259,4.0,10.0,74,0.00,,,0.00,,2013-04-08 04:02:00,
2013-04-07 21:12:00,54.0,46.0,29.92,West,259,4.0,10.0,74,0.00,,,0.00,,2013-04-08 04:12:00,
2013-04-07 21:23:00,54.0,46.0,29.92,West,264,4.0,11.0,75,0.00,,,0.00,,2013-04-08 04:23:00,
2013-04-07 21:32:00,53.0,46.0,29.92,West,266,4.0,10.0,76,0.00,,,0.00,,2013-04-08 04:32:00,
2013-04-07 21:43:00,53.0,46.0,29.92,West,266,4.0,10.0,76,0.00,,,0.00,,2013-04-08 04:43:00,
2013-04-07 21:52:00,53.0,48.0,29.91,SSW,194,5.0,11.0,83,0.01,,,0.01,,2013-04-08 04:52:00,
2013-04-07 22:02:00,52.0,48.0,29.90,SSW,211,3.0,8.0,85,0.01,,,0.01,,2013-04-08 05:02:00,
2013-04-07 22:12:00,52.0,48.0,29.90,SSW,211,3.0,8.0,85,0.01,,,0.01,,2013-04-08 05:12:00,
2013-04-07 22:21:00,52.0,48.0,29.90,SSW,211,3.0,8.0,85,0.01,,,0.01,,2013-04-08 05:21:00,
2013-04-07 22:31:00,51.0,47.0,29.89,SSW,207,7.0,15.0,87,0.01,,,0.01,,2013-04-08 05:31:00,
2013-04-07 22:42:00,51.0,48.0,29.87,South,186,4.0,12.0,88,0.00,,,0.01,,2013-04-08 05:42:00,
2013-04-07 22:52:00,51.0,48.0,29.87,South,186,4.0,12.0,88,0.00,,,0.01,,2013-04-08 05:52:00,
2013-04-07 23:02:00,51.0,48.0,29.86,South,189,3.0,9.0,88,0.01,,,0.02,,2013-04-08 06:02:00,
2013-04-07 23:12:00,51.0,48.0,29.85,WSW,238,3.0,9.0,88,0.03,,,0.04,,2013-04-08 06:12:00,
2013-04-07 23:21:00,51.0,48.0,29.85,WSW,238,3.0,9.0,88,0.03,,,0.04,,2013-04-08 06:21:00,
2013-04-07 23:32:00,51.0,48.0,29.84,SSE,165,2.0,7.0,89,0.05,,,0.06,,2013-04-08 06:32:00,
2013-04-07 23:42:00,51.0,48.0,29.84,SSE,165,2.0,7.0,89,0.05,,,0.06,,2013-04-08 06:42:00,
2013-04-07 23:52:00,51.0,48.0,29.83,SSW,202,6.0,12.0,89,0.06,,,0.07,,2013-04-08 06:52:00,